TimeEDT,TemperatureF,Dew PointF,Humidity,Sea Level PressureIn,VisibilityMPH,Wind Direction,Wind SpeedMPH,Gust SpeedMPH,PrecipitationIn,Events,Conditions,WindDirDegrees,DateUTC
12:53 AM,72.0,63.0,73,30.22,10.0,South,5.8,-,N/A,,Clear,190,2013-04-26 04:53:00
1:53 AM,72.0,63.0,73,30.20,10.0,South,4.6,-,N/A,,Clear,180,2013-04-26 05:53:00
2:53 AM,71.1,63.0,75,30.19,10.0,SSW,4.6,-,N/A,,Clear,200,2013-04-26 06:53:00
3:53 AM,70.0,63.0,78,30.19,10.0,SSW,4.6,-,N/A,,Clear,210,2013-04-26 07:53:00
4:53 AM,69.1,62.1,78,30.18,10.0,SSW,3.5,-,N/A,,Clear,200,2013-04-26 08:53:00
5:53 AM,66.9,63.0,87,30.18,10.0,Calm,Calm,-,N/A,,Clear,0,2013-04-26 09:53:00
6:53 AM,66.0,64.0,93,30.20,10.0,Calm,Calm,-,N/A,,Clear,0,2013-04-26 10:53:00
7:53 AM,70.0,64.9,84,30.22,10.0,Calm,Calm,-,N/A,,Clear,0,2013-04-26 11:53:00
8:53 AM,75.0,63.0,66,30.24,10.0,North,4.6,-,N/A,,Clear,360,2013-04-26 12:53:00
9:53 AM,75.9,64.0,67,30.26,10.0,Calm,Calm,-,N/A,,Clear,0,2013-04-26 13:53:00
10:53 AM,79.0,63.0,58,30.27,10.0,Variable,4.6,-,N/A,,Clear,0,2013-04-26 14:53:00
11:53 AM,80.1,64.0,58,30.27,10.0,South,5.8,-,N/A,,Partly Cloudy,180,2013-04-26 15:53:00
12:53 PM,84.0,63.0,49,30.25,10.0,ESE,8.1,17.3,N/A,,Mostly Cloudy,110,2013-04-26 16:53:00
1:53 PM,86.0,63.0,46,30.24,10.0,East,6.9,16.1,N/A,,Mostly Cloudy,90,2013-04-26 17:53:00
2:53 PM,84.9,60.1,43,30.22,10.0,ENE,6.9,23.0,N/A,,Mostly Cloudy,70,2013-04-26 18:53:00
3:53 PM,89.1,61.0,39,30.20,10.0,NE,10.4,17.3,N/A,,Scattered Clouds,50,2013-04-26 19:53:00
4:53 PM,87.1,60.1,40,30.19,10.0,NE,13.8,-,N/A,,Partly Cloudy,40,2013-04-26 20:53:00
5:53 PM,87.1,60.1,40,30.19,10.0,ENE,10.4,-,N/A,,Partly Cloudy,60,2013-04-26 21:53:00
6:53 PM,82.0,63.0,52,30.20,10.0,ENE,12.7,19.6,N/A,,Partly Cloudy,70,2013-04-26 22:53:00
7:53 PM,79.0,63.0,58,30.21,10.0,ENE,12.7,20.7,N/A,,Clear,70,2013-04-26 23:53:00
8:53 PM,75.9,64.0,67,30.23,10.0,ENE,9.2,-,N/A,,Clear,70,2013-04-27 00:53:00
9:53 PM,73.9,64.9,73,30.26,10.0,NE,6.9,-,N/A,,Clear,50,2013-04-27 01:53:00
10:53 PM,73.0,64.9,76,30.27,10.0,NE,6.9,-,N/A,,Clear,50,2013-04-27 02:53:00
11:53 PM,71.1,66.0,84,30.27,10.0,NE,5.8,-,N/A,,Clear,50,2013-04-27 03:53:00